AirNav   Bose Proflight Series 2 Wireless viation Headset
 
 1617 users online  

04WN Stillwater Creek Airport
Royal City, Washington, USA

GOING TO ROYAL CITY?


FAA INFORMATION EFFECTIVE 10 OCTOBER 2019

Location

FAA Identifier: 04WN
Lat/Long: 46-57-30.0900N 119-38-19.7500W
46-57.501500N 119-38.329167W
46.9583583,-119.6388194
(estimated)
Elevation: 1510 ft. / 460 m (estimated)
From city: 4 miles NNW of ROYAL CITY, WA
Time zone: UTC -7 (UTC -8 during Standard Time)
Zip code: 99357

Airport Operations

Airport use: Private use. Permission required prior to landing
Activation date: 02/2007
Control tower: no
ARTCC: SEATTLE CENTER
FSS: SEATTLE FLIGHT SERVICE STATION
Attendance: UNATNDD
Segmented circle: no

Airport Communications

WX ASOS at MWH (20 nm NE): PHONE 509-762-5082

Nearby radio navigation aids

VOR radial/distance  VOR name  Freq  Var
MWHr203/20.1MOSES LAKE VOR/DME115.0018E
EPHr178/26.7EPHRATA VORTAC112.6021E
ELNr076/33.8ELLENSBURG VOR/DME117.9021E
EATr124/35.3WENATCHEE VOR/DME111.0015E

Airport Services

Runway Information

Runway 11/29

Dimensions: 4100 x 60 ft. / 1250 x 18 m
Surface: asphalt
RUNWAY 11  RUNWAY 29
Traffic pattern: leftleft

Airport Ownership and Management from official FAA records

Ownership: Privately-owned
Owner: STILLWATER CREEK VINEYARD
8791 ROAD G5 SW
ROYAL CITY, WA 99357
Phone 206-674-3000
Manager: KEITH VERNON
1000 2ND AVE STE 3700
SEATTLE, WA 98104
Phone 206-674-8709

Additional Remarks

FOR CD CTC GRANT COUNTY APCH AT 509-762-2842, WHEN APCH CLSD CTC SEATTLE ARTCC AT 253-351-3694.

Instrument Procedures

There are no published instrument procedures at 04WN.

Some nearby airports with instrument procedures:

KMWH - Grant County International Airport (20 nm NE)
KEPH - Ephrata Municipal Airport (22 nm N)
KEAT - Pangborn Memorial Airport (35 nm NW)
KELN - Bowers Field Airport (37 nm W)
KRLD - Richland Airport (42 nm S)
 
Loc | Ops | Rwys | IFR | FBO | Links
Com | Nav | Svcs | Stats | Notes
Area around 04WN (Stillwater Creek Airport)
 
Road maps at: MapQuest Bing Google
 
Aerial photo
No photo
 
Sectional chart

 
Airport distance calculator
Flying to Stillwater Creek Airport? Find the distance to fly.

From to 04WN

Sunrise and sunset
Times for 23-Oct-2019
 Local
(UTC-7)
 Zulu
(UTC)
Morning civil twilight06:5813:58
Sunrise07:2914:29
Sunset17:5700:57
Evening civil twilight18:2801:28

Current date and time
Zulu (UTC)  23-Oct-2019 14:05:44
Local (UTC-7)  23-Oct-2019 07:05:44
 
METAR
KMWH 
20nm NE 
231352Z 35009KT 10SM CLR 02/M02 A3041 RMK AO2 SLP352 T00221017
KEPH 
21nm N 
231353Z AUTO 32008KT 10SM CLR 06/M01 A3040 RMK AO2 SLP300 T00611011
KEAT 
35nm NW 
231355Z AUTO 27005KT 10SM CLR 03/00 A3043 RMK AO2 SLP309 T00330000
KELN 
37nm W 
231353Z AUTO 32005KT 10SM CLR 01/M03 A3042 RMK AO2 SLP310 T00111028
TAF
KMWH 
20nm NE 
231120Z 2312/2412 32005KT P6SM FEW250 FM232300 VRB04KT P6SM FEW250
NOTAMs
Click for the latest NOTAMs
NOTAMs are issued by the DoD/FAA and will open in a separate window not controlled by AirNav.

 

 
 

Would you like to see your business listed on this page?

 If your business provides an interesting product or service to pilots, flight crews, aircraft, or users of the Stillwater Creek Airport, you should consider listing it here.  To start the listing process, click on the button below
 
Add a business
 

Other Pages about Stillwater Creek Airport

Update a link
 
Copyright © AirNav, LLC. All rights reserved. Privacy Policy  Contact